星链-11286 (STARLINK-11286)

导读 | 豆包AI

STARLINK-11286是美国SpaceX公司星链星座的卫星,于2024年9月13日发射升空,属于星链全球卫星互联网组网的一部分。星链计划旨在通过部署数千颗低轨卫星,为全球偏远及网络覆盖不足区域提供低延迟、高速率宽带服务,STARLINK-11286入轨后将参与星座组网,扩展服务覆盖范围,助力星链实现全球全域互联网接入目标。

基本信息
目录编号:
61050
目录名称:
STARLINK-11286
国际标识:
2024-164A
轨道中心:
EARTH
卫星名称:
星链-11286
卫星全名:
星链-11286 (STARLINK-11286)
卫星状态:
在轨 (已飞行548 天)
发射日期:
2024-09-13 UTC
国别 :
美国 (US)
星等 :
--
轨道信息
数据来源 国际轨道数据
星历时间: 2026-03-15T05:05:18+0800
14小时前
查看轨道信息
半长轴: 6737.877km
偏心率: 0.0001101
轨道倾角: 53.157°
近地点辐角 74.424°
升交点赤经 285.707°
平近点角 285.690°
近地点: 358.998km
远地点: 360.482km
周期: 91.737分钟
每日圈数: 15.697055
详细信息
固有亮度:
5
最大亮度:
2.5
卫星平台:
Starlink V1.0
覆盖范围:
全球
运营商:
太空探索技术公司
运营商所在国:
美国
制造商(研发单位):
太空探索技术公司
制造商所在国:
美国
使用方式:
暂无
卫星简介
Starlink 计划是 SpaceX 推出的全球卫星互联网项目,通过发射低轨道卫星,为全球尤其是偏远地区提供高速、低延迟的互联网服务。自 2019 年起,Starlink 已部署数千颗卫星,旨在缩小全球数字鸿沟,推动互联网普及。该项目还为军事、航空等行业提供通信支持,带来广泛经济效益。
2D轨道图
3D轨道图
轨道高度分析图
轨道倾角分析图
轨道综合分析图
查看轨道综合分析图